Location: Ehrke Reservoir
(40.0279°N, 99.6641°W)
Time: 13:36:30
(UTC+00:00)

CSL-04 Debris - Pass Details

Date: 20 January 2020
Orbit: 828 x 848 km, 99.0° (Epoch: 17 February)

Event Time Altitude Azimuth Distance (km) Brightness Sun altitude
Rises 00:44:10 0° 148° (SSE) 3,354 7.2 -11.9°
Reaches altitude 10° 00:46:34 10° 143° (SE) 2,424 6.4 -12.4°
Maximum altitude 00:51:42 48° 70° (ENE) 1,073 4.3 -13.3°
Drops below altitude 10° 00:56:52 10° 358° (N) 2,442 6.5 -14.3°
Sets 00:59:17 0° 353° (N) 3,382 7.3 -14.7°
